Weather History for KT65 - July, 2013

Change the Weather History Date:

Wednesday, July 24, 2013

  Actual Average (KMFE) Record (KMFE)
Temperature  
Mean Temperature 88 °F 87 °F  
Max Temperature 99 °F 98 °F 105 °F (1980)
Min Temperature 78 °F 77 °F 68 °F (1952)
Degree Days  
Heating Degree Days 0 0  
Month to date heating degree days 0  
Since 1 June heating degree days 0  
Since 1 July heating degree days 0  
Cooling Degree Days 23 22  
Month to date cooling degree days 518  
Year to date cooling degree days 2401  
Since 1 June cooling degree days 1146  
Growing Degree Days 38 (Base 50)    
Moisture  
Dew Point 70 °F    
Average Humidity 61    
Maximum Humidity 84    
Minimum Humidity 30    
Precipitation  
Precipitation 0.00 in 0.05 in 0.55 in (1949)
Month to date precipitation 1.66  
Year to date precipitation 11.02  
Sea Level Pressure  
Sea Level Pressure 29.91 in    
Wind  
Wind Speed 12 mph (SSE)    
Max Wind Speed 20 mph    
Max Gust Speed 26 mph    
Visibility 8 miles    
Events      
T = Trace of Precipitation, MM = Missing Value Source: NWS Daily Summary

Daily Weather History Graph

Daily Weather History Graph

Search for Another Location

Airport or City:

Trip Planner

Search our weather history database for the weather conditions in past years. The results will help you decide how hot, cold, wet, or windy it might be!

Date:

Astronomy

Jul. 24, 2013 Rise Set
Actual Time 6:53 AM CDT 8:22 PM CDT
Civil Twilight 6:28 AM CDT 8:48 PM CDT
Nautical Twilight 5:58 AM CDT 9:18 PM CDT
Astronomical Twilight 5:26 AM CDT 9:49 PM CDT
Moon 9:52 PM CDT (7/24) 8:56 AM CDT (7/24)
Length of Visible Light 14h 19m
Length of Day
13h 29m
Waning Gibbous, 94% of the Moon is Illuminated
Jul 24
Waning Gibbous
Jul 29
Last Quarter
Aug 6
New
Aug 14
First Quarter
Aug 20
Full

Hourly Weather History & Observations

Time (CDT) Temp. Heat Index Dew Point Humidity Pressure Visibility Wind Dir Wind Speed Gust Speed Precip Events Conditions
12:15 AM 81.5 °F 87.4 °F 74.5 °F 79% 29.93 in 7.0 mi SE 10.4 mph 17.3 mph N/A   Clear
12:35 AM 81.5 °F 87.6 °F 74.7 °F 80% 29.93 in 7.0 mi SSE 13.8 mph - N/A   Clear
12:55 AM 81.5 °F 87.4 °F 74.5 °F 79% 29.93 in 7.0 mi SSE 12.7 mph 17.3 mph N/A   Clear
1:15 AM 81.1 °F 87.0 °F 74.7 °F 81% 29.93 in 7.0 mi SSE 10.4 mph 16.1 mph N/A   Clear
1:35 AM 81.0 °F 86.5 °F 74.7 °F 81% 29.94 in 7.0 mi SSE 9.2 mph - N/A   Clear
1:55 AM 80.8 °F 86.3 °F 74.7 °F 82% 29.94 in 7.0 mi SSE 11.5 mph - N/A   Clear
2:15 AM 80.6 °F 86.0 °F 74.8 °F 83% 29.94 in 7.0 mi SSE 9.2 mph - N/A   Clear
2:35 AM 80.6 °F 86.0 °F 74.8 °F 83% 29.94 in 7.0 mi SSE 9.2 mph - N/A   Scattered Clouds
2:55 AM 81.0 °F 86.9 °F 75.2 °F 83% 29.94 in 7.0 mi SSE 8.1 mph - N/A   Overcast
3:15 AM 80.6 °F 86.0 °F 74.8 °F 83% 29.93 in 7.0 mi SSE 9.2 mph - N/A   Overcast
3:35 AM 80.6 °F 86.0 °F 74.8 °F 83% 29.92 in 7.0 mi SSE 11.5 mph - N/A   Scattered Clouds
3:55 AM 80.1 °F 84.8 °F 74.7 °F 83% 29.91 in 7.0 mi SSE 11.5 mph 16.1 mph N/A   Clear
4:15 AM 80.1 °F 84.8 °F 74.7 °F 83% 29.90 in 7.0 mi SSE 9.2 mph - N/A   Clear
4:35 AM 80.1 °F 84.8 °F 74.7 °F 83% 29.90 in 7.0 mi SSE 10.4 mph - N/A   Clear
4:55 AM 80.1 °F 84.6 °F 74.3 °F 82% 29.90 in 7.0 mi SSE 11.5 mph 18.4 mph N/A   Clear
5:15 AM 80.1 °F 84.5 °F 73.9 °F 81% 29.91 in 7.0 mi SSE 9.2 mph - N/A   Clear
5:35 AM 79.9 °F - 74.1 °F 82% 29.91 in 7.0 mi SSE 10.4 mph - N/A   Clear
5:55 AM 79.7 °F - 74.1 °F 83% 29.91 in 7.0 mi SSE 8.1 mph - N/A   Clear
6:15 AM 79.7 °F - 73.9 °F 82% 29.92 in 7.0 mi SSE 6.9 mph - N/A   Clear
6:35 AM 79.2 °F - 73.9 °F 84% 29.92 in 7.0 mi SSE 5.8 mph - N/A   Clear
6:55 AM 78.8 °F - 73.6 °F 84% 29.93 in 7.0 mi SSE 5.8 mph - N/A   Clear
7:15 AM 79.0 °F - 73.6 °F 83% 29.93 in 7.0 mi SE 5.8 mph - N/A   Clear
7:35 AM 79.7 °F - 73.8 °F 82% 29.93 in 5.0 mi SSE 6.9 mph - N/A   Haze
7:55 AM 81.0 °F 86.3 °F 74.3 °F 80% 29.94 in 5.0 mi SSE 6.9 mph - N/A   Haze
8:15 AM 81.9 °F 88.0 °F 74.3 °F 78% 29.94 in 5.0 mi South 11.5 mph - N/A   Haze
8:35 AM 83.3 °F 90.5 °F 74.5 °F 75% 29.95 in 7.0 mi SSE 12.7 mph 17.3 mph N/A   Mostly Cloudy
8:55 AM 83.5 °F 90.6 °F 74.3 °F 74% 29.95 in 7.0 mi SSE 12.7 mph 18.4 mph N/A   Mostly Cloudy
9:15 AM 84.6 °F 91.4 °F 73.4 °F 69% 29.95 in 7.0 mi South 15.0 mph 21.9 mph N/A   Mostly Cloudy
9:35 AM 84.6 °F 90.7 °F 72.7 °F 67% 29.95 in 5.0 mi South 15.0 mph 21.9 mph N/A   Haze
9:55 AM 85.6 °F 92.2 °F 72.5 °F 65% 29.95 in 5.0 mi South 15.0 mph 20.7 mph N/A   Haze
10:15 AM 86.9 °F 92.1 °F 70.5 °F 58% 29.95 in 7.0 mi South 18.4 mph 25.3 mph N/A   Scattered Clouds
10:35 AM 88.0 °F 92.5 °F 69.6 °F 54% 29.94 in 7.0 mi SSE 17.3 mph 26.5 mph N/A   Scattered Clouds
10:55 AM 90.5 °F 95.1 °F 68.9 °F 49% 29.94 in 7.0 mi South 19.6 mph 25.3 mph N/A   Clear
11:15 AM 91.6 °F 96.2 °F 68.9 °F 47% 29.94 in 7.0 mi SSE 17.3 mph 25.3 mph N/A   Scattered Clouds
11:35 AM 92.3 °F 97.0 °F 68.9 °F 46% 29.94 in 7.0 mi South 15.0 mph 23.0 mph N/A   Scattered Clouds
11:55 AM 93.7 °F 97.7 °F 67.6 °F 42% 29.94 in 7.0 mi South 18.4 mph 24.2 mph N/A   Mostly Cloudy
12:15 PM 94.3 °F 97.7 °F 66.6 °F 40% 29.93 in 10.0 mi SSE 15.0 mph 21.9 mph N/A   Scattered Clouds
12:35 PM 94.8 °F 98.1 °F 66.6 °F 39% 29.93 in 7.0 mi South 9.2 mph 19.6 mph N/A   Clear
12:55 PM 95.4 °F 99.1 °F 66.7 °F 39% 29.93 in 7.0 mi South 15.0 mph 24.2 mph N/A   Scattered Clouds
1:15 PM 96.6 °F 99.2 °F 65.1 °F 35% 29.93 in 7.0 mi SE 12.7 mph 23.0 mph N/A   Scattered Clouds
1:35 PM 97.7 °F 99.5 °F 63.3 °F 32% 29.92 in 7.0 mi South 16.1 mph 21.9 mph N/A   Clear
1:55 PM 98.8 °F 100.3 °F 62.6 °F 30% 29.92 in 10.0 mi SSE 16.1 mph 21.9 mph N/A   Clear
2:15 PM 97.5 °F 99.2 °F 63.3 °F 32% 29.91 in 10.0 mi SSE 15.0 mph 26.5 mph N/A   Clear
2:35 PM 98.2 °F 99.9 °F 62.8 °F 31% 29.90 in 10.0 mi ESE 12.7 mph 23.0 mph N/A   Clear
2:55 PM 98.6 °F 100.5 °F 63.1 °F 31% 29.89 in 7.0 mi South 11.5 mph 20.7 mph N/A   Clear
3:15 PM 98.4 °F 101.3 °F 64.6 °F 33% 29.88 in 7.0 mi SSE 11.5 mph 20.7 mph N/A   Clear
3:35 PM 98.6 °F 100.5 °F 63.3 °F 31% 29.88 in 10.0 mi SSE 13.8 mph 20.7 mph N/A   Clear
3:55 PM 98.4 °F 100.7 °F 63.5 °F 32% 29.88 in 10.0 mi SSE 13.8 mph 24.2 mph N/A   Clear
4:15 PM 97.9 °F 100.9 °F 64.8 °F 34% 29.87 in 10.0 mi SSE 17.3 mph 23.0 mph N/A   Scattered Clouds
4:35 PM 97.0 °F 99.9 °F 65.5 °F 35% 29.87 in 10.0 mi SSE 16.1 mph 24.2 mph N/A   Scattered Clouds
4:55 PM 96.4 °F 98.4 °F 64.0 °F 34% 29.87 in 10.0 mi SSE 16.1 mph 24.2 mph N/A   Clear
5:15 PM 96.3 °F 98.1 °F 63.3 °F 34% 29.86 in 10.0 mi SSE 15.0 mph 23.0 mph N/A   Clear
5:35 PM 95.9 °F 98.0 °F 64.6 °F 35% 29.87 in 10.0 mi SSE 16.1 mph 24.2 mph N/A   Clear
5:55 PM 94.8 °F 97.1 °F 64.9 °F 37% 29.87 in 10.0 mi South 17.3 mph 25.3 mph N/A   Clear
6:15 PM 94.5 °F 97.5 °F 66.0 °F 39% 29.87 in 10.0 mi SSE 16.1 mph 21.9 mph N/A   Clear
6:35 PM 93.4 °F 97.0 °F 67.1 °F 42% 29.86 in 10.0 mi SSE 19.6 mph 23.0 mph N/A   Clear
6:55 PM 91.9 °F 95.4 °F 66.9 °F 44% 29.86 in 10.0 mi SSE 18.4 mph - N/A   Clear
7:15 PM 90.7 °F 94.1 °F 67.1 °F 46% 29.85 in 10.0 mi SSE 16.1 mph 21.9 mph N/A   Clear
7:35 PM 88.9 °F 93.0 °F 68.9 °F 51% 29.86 in 10.0 mi SSE 17.3 mph 25.3 mph N/A   Clear
7:55 PM 87.8 °F 92.6 °F 70.0 °F 55% 29.88 in 10.0 mi SE 10.4 mph 20.7 mph N/A   Clear
8:15 PM 86.4 °F 91.1 °F 70.2 °F 58% 29.89 in 10.0 mi SSE 12.7 mph 18.4 mph N/A   Clear
8:35 PM 85.5 °F 90.4 °F 70.5 °F 61% 29.89 in 10.0 mi SSE 13.8 mph 17.3 mph N/A   Clear
8:55 PM 84.7 °F 89.7 °F 70.7 °F 63% 29.90 in 10.0 mi SSE 12.7 mph - N/A   Clear
9:15 PM 84.2 °F 88.7 °F 70.2 °F 63% 29.89 in 7.0 mi SSE 11.5 mph - N/A   Clear
9:35 PM 83.5 °F 88.2 °F 71.1 °F 66% 29.89 in 10.0 mi SSE 17.3 mph 23.0 mph N/A   Clear
9:55 PM 82.8 °F 87.4 °F 71.2 °F 68% 29.90 in 7.0 mi SSE 15.0 mph 20.7 mph N/A   Clear
10:15 PM 82.4 °F 87.2 °F 71.6 °F 70% 29.91 in 7.0 mi SE 11.5 mph 21.9 mph N/A   Clear
10:35 PM 81.9 °F 86.4 °F 71.6 °F 71% 29.92 in 7.0 mi SE 8.1 mph 17.3 mph N/A   Clear
10:55 PM 81.5 °F 85.9 °F 71.6 °F 72% 29.92 in 7.0 mi SE 8.1 mph - N/A   Clear
11:15 PM 80.8 °F 84.9 °F 71.8 °F 74% 29.93 in 10.0 mi SSE 9.2 mph - N/A   Clear
11:35 PM 80.6 °F 84.6 °F 71.8 °F 74% 29.93 in 7.0 mi SSE 12.7 mph 17.3 mph N/A   Clear
11:55 PM 80.4 °F 84.4 °F 72.0 °F 75% 29.94 in 7.0 mi SSE 10.4 mph - N/A   Clear